Time,TemperatureF,DewpointF,PressureIn,WindDirection,WindDirectionDegrees,WindSpeedMPH,WindSpeedGustMPH,Humidity,HourlyPrecipIn,Conditions,Clouds,dailyrainin,SoftwareType,DateUTC
2013-02-02 00:00:00,40.8,39.5,30.30,SE,135,4.0,4.0,95,0.00,,,0.02,Wunderground v.1.15,2013-02-02 08:00:00,
2013-02-02 00:10:00,40.6,39.3,30.30,ESE,111,3.0,3.0,95,0.00,,,0.00,Wunderground v.1.15,2013-02-02 08:10:00,
2013-02-02 00:15:00,40.7,39.4,30.30,SE,126,3.0,3.0,95,0.00,,,0.00,Wunderground v.1.15,2013-02-02 08:15:00,
2013-02-02 00:20:00,40.7,39.4,30.30,SE,126,4.0,4.0,95,0.00,,,0.00,Wunderground v.1.15,2013-02-02 08:20:00,
2013-02-02 00:25:00,40.5,39.2,30.30,ESE,112,5.0,5.0,95,0.00,,,0.00,Wunderground v.1.15,2013-02-02 08:25:00,
2013-02-02 00:30:00,40.6,39.3,30.30,SE,128,5.0,5.0,95,0.00,,,0.00,Wunderground v.1.15,2013-02-02 08:30:00,
2013-02-02 00:35:00,40.6,39.3,30.31,SE,126,4.0,5.0,95,0.00,,,0.00,Wunderground v.1.15,2013-02-02 08:35:00,
2013-02-02 00:40:00,40.7,39.4,30.31,SE,127,4.0,4.0,95,0.00,,,0.00,Wunderground v.1.15,2013-02-02 08:40:00,
2013-02-02 00:45:00,40.8,39.5,30.31,SE,129,4.0,4.0,95,0.00,,,0.00,Wunderground v.1.15,2013-02-02 08:45:00,
2013-02-02 00:50:00,40.9,39.6,30.31,SE,125,5.0,5.0,95,0.00,,,0.00,Wunderground v.1.15,2013-02-02 08:50:00,
2013-02-02 00:55:00,41.0,39.7,30.31,ESE,121,5.0,5.0,95,0.00,,,0.00,Wunderground v.1.15,2013-02-02 08:55:00,
2013-02-02 01:00:00,41.3,40.0,30.31,ESE,113,5.0,5.0,95,0.00,,,0.00,Wunderground v.1.15,2013-02-02 09:00:00,
2013-02-02 01:10:00,41.3,39.7,30.31,East,101,5.0,5.0,94,0.00,,,0.00,Wunderground v.1.15,2013-02-02 09:10:00,
2013-02-02 01:15:00,41.1,39.5,30.31,SE,128,5.0,5.0,94,0.00,,,0.00,Wunderground v.1.15,2013-02-02 09:15:00,
2013-02-02 01:20:00,40.9,39.6,30.31,ESE,117,4.0,4.0,95,0.00,,,0.00,Wunderground v.1.15,2013-02-02 09:20:00,
2013-02-02 01:25:00,40.8,39.2,30.31,SE,133,4.0,7.0,94,0.00,,,0.00,Wunderground v.1.15,2013-02-02 09:25:00,
2013-02-02 01:30:00,40.7,39.4,30.31,ESE,123,4.0,4.0,95,0.00,,,0.00,Wunderground v.1.15,2013-02-02 09:30:00,
2013-02-02 01:35:00,40.7,39.4,30.31,ESE,121,4.0,4.0,95,0.00,,,0.00,Wunderground v.1.15,2013-02-02 09:35:00,
2013-02-02 01:40:00,40.8,39.5,30.31,SE,125,4.0,4.0,95,0.00,,,0.00,Wunderground v.1.15,2013-02-02 09:40:00,
2013-02-02 01:45:00,40.7,39.4,30.31,ESE,108,4.0,4.0,95,0.00,,,0.00,Wunderground v.1.15,2013-02-02 09:45:00,
2013-02-02 01:50:00,40.7,39.4,30.31,ESE,114,3.0,3.0,95,0.00,,,0.00,Wunderground v.1.15,2013-02-02 09:50:00,
2013-02-02 01:55:00,40.6,39.3,30.31,SE,134,4.0,4.0,95,0.00,,,0.00,Wunderground v.1.15,2013-02-02 09:55:00,
2013-02-02 02:05:00,40.4,39.1,30.32,ESE,123,5.0,7.0,95,0.00,,,0.00,Wunderground v.1.15,2013-02-02 10:05:00,
2013-02-02 02:10:00,40.6,39.3,30.32,SE,130,6.0,8.0,95,0.00,,,0.00,Wunderground v.1.15,2013-02-02 10:10:00,
2013-02-02 02:15:00,40.9,39.6,30.32,SE,129,7.0,9.0,95,0.00,,,0.00,Wunderground v.1.15,2013-02-02 10:15:00,
2013-02-02 02:20:00,40.8,39.2,30.32,ESE,119,7.0,8.0,94,0.00,,,0.00,Wunderground v.1.15,2013-02-02 10:20:00,
2013-02-02 02:25:00,40.8,39.2,30.32,SE,130,7.0,8.0,94,0.00,,,0.00,Wunderground v.1.15,2013-02-02 10:25:00,
2013-02-02 02:30:00,40.7,39.1,30.32,SE,126,7.0,7.0,94,0.00,,,0.00,Wunderground v.1.15,2013-02-02 10:30:00,
2013-02-02 02:35:00,40.6,39.0,30.32,ESE,112,6.0,7.0,94,0.00,,,0.00,Wunderground v.1.15,2013-02-02 10:35:00,
2013-02-02 02:40:00,40.5,39.2,30.32,SE,131,5.0,6.0,95,0.00,,,0.00,Wunderground v.1.15,2013-02-02 10:40:00,
2013-02-02 02:45:00,40.5,39.2,30.32,SE,124,5.0,6.0,95,0.00,,,0.00,Wunderground v.1.15,2013-02-02 10:45:00,
2013-02-02 02:50:00,40.5,39.2,30.31,SE,138,6.0,6.0,95,0.00,,,0.00,Wunderground v.1.15,2013-02-02 10:50:00,
2013-02-02 02:55:00,40.3,39.0,30.31,ESE,120,7.0,12.0,95,0.00,,,0.00,Wunderground v.1.15,2013-02-02 10:55:00,
2013-02-02 03:00:00,40.0,38.7,30.31,SE,136,8.0,8.0,95,0.00,,,0.00,Wunderground v.1.15,2013-02-02 11:00:00,
2013-02-02 03:05:00,39.8,38.5,30.31,SE,131,8.0,8.0,95,0.00,,,0.00,Wunderground v.1.15,2013-02-02 11:05:00,
2013-02-02 03:10:00,39.6,38.6,30.31,SE,129,8.0,8.0,96,0.00,,,0.00,Wunderground v.1.15,2013-02-02 11:10:00,
2013-02-02 03:15:00,39.5,38.5,30.31,SE,136,8.0,9.0,96,0.00,,,0.00,Wunderground v.1.15,2013-02-02 11:15:00,
2013-02-02 03:20:00,39.4,38.4,30.31,ESE,117,8.0,8.0,96,0.00,,,0.00,Wunderground v.1.15,2013-02-02 11:20:00,
2013-02-02 03:25:00,39.2,38.2,30.31,ESE,123,7.0,8.0,96,0.00,,,0.00,Wunderground v.1.15,2013-02-02 11:25:00,
2013-02-02 03:30:00,39.1,38.1,30.30,SE,125,6.0,6.0,96,0.00,,,0.00,Wunderground v.1.15,2013-02-02 11:30:00,
2013-02-02 03:35:00,39.0,38.0,30.30,SE,134,6.0,8.0,96,0.00,,,0.00,Wunderground v.1.15,2013-02-02 11:35:00,
2013-02-02 03:40:00,39.0,38.0,30.30,ESE,116,6.0,6.0,96,0.00,,,0.00,Wunderground v.1.15,2013-02-02 11:40:00,
2013-02-02 03:50:00,38.8,37.8,30.30,ESE,103,5.0,5.0,96,0.00,,,0.00,Wunderground v.1.15,2013-02-02 11:50:00,
2013-02-02 03:55:00,38.8,37.8,30.30,SE,125,5.0,5.0,96,0.00,,,0.00,Wunderground v.1.15,2013-02-02 11:55:00,
2013-02-02 04:05:00,38.9,37.9,30.29,ESE,119,5.0,5.0,96,0.00,,,0.00,Wunderground v.1.15,2013-02-02 12:05:00,
2013-02-02 04:10:00,38.9,37.9,30.29,ESE,112,5.0,5.0,96,0.00,,,0.00,Wunderground v.1.15,2013-02-02 12:10:00,
2013-02-02 04:15:00,38.9,37.9,30.29,ESE,116,5.0,5.0,96,0.00,,,0.00,Wunderground v.1.15,2013-02-02 12:15:00,
2013-02-02 04:20:00,39.1,38.3,30.29,East,100,4.0,4.0,97,0.00,,,0.00,Wunderground v.1.15,2013-02-02 12:20:00,
2013-02-02 04:25:00,39.2,38.4,30.29,ESE,117,4.0,4.0,97,0.00,,,0.00,Wunderground v.1.15,2013-02-02 12:25:00,
2013-02-02 04:30:00,39.2,38.4,30.29,ESE,107,4.0,4.0,97,0.00,,,0.00,Wunderground v.1.15,2013-02-02 12:30:00,
2013-02-02 04:35:00,39.2,38.4,30.29,SE,124,4.0,7.0,97,0.00,,,0.00,Wunderground v.1.15,2013-02-02 12:35:00,
2013-02-02 04:40:00,39.2,38.2,30.29,SE,137,5.0,8.0,96,0.00,,,0.00,Wunderground v.1.15,2013-02-02 12:40:00,
2013-02-02 04:50:00,39.1,38.1,30.28,ESE,115,6.0,6.0,96,0.00,,,0.00,Wunderground v.1.15,2013-02-02 12:50:00,
2013-02-02 04:55:00,39.2,38.2,30.29,SE,133,7.0,11.0,96,0.00,,,0.00,Wunderground v.1.15,2013-02-02 12:55:00,
2013-02-02 05:00:00,39.2,38.2,30.28,ESE,120,9.0,12.0,96,0.00,,,0.00,Wunderground v.1.15,2013-02-02 13:00:00,
2013-02-02 05:10:00,39.1,38.1,30.28,SE,138,8.0,9.0,96,0.00,,,0.00,Wunderground v.1.15,2013-02-02 13:10:00,
2013-02-02 05:15:00,39.0,38.0,30.28,ESE,118,7.0,9.0,96,0.00,,,0.00,Wunderground v.1.15,2013-02-02 13:15:00,
2013-02-02 05:20:00,38.9,37.9,30.28,SE,129,6.0,8.0,96,0.00,,,0.00,Wunderground v.1.15,2013-02-02 13:20:00,
2013-02-02 05:25:00,39.0,38.0,30.28,ESE,119,7.0,10.0,96,0.00,,,0.00,Wunderground v.1.15,2013-02-02 13:25:00,
2013-02-02 05:30:00,38.9,37.9,30.28,East,93,7.0,7.0,96,0.00,,,0.00,Wunderground v.1.15,2013-02-02 13:30:00,
2013-02-02 05:35:00,39.0,38.0,30.28,SE,130,7.0,9.0,96,0.00,,,0.00,Wunderground v.1.15,2013-02-02 13:35:00,
2013-02-02 05:40:00,39.0,38.0,30.28,SE,130,8.0,8.0,96,0.00,,,0.00,Wunderground v.1.15,2013-02-02 13:40:00,
2013-02-02 05:50:00,38.8,37.8,30.28,ESE,102,6.0,6.0,96,0.00,,,0.00,Wunderground v.1.15,2013-02-02 13:50:00,
2013-02-02 05:55:00,38.7,37.7,30.28,SE,124,7.0,7.0,96,0.00,,,0.00,Wunderground v.1.15,2013-02-02 13:55:00,
2013-02-02 06:00:00,38.7,37.7,30.28,East,99,8.0,8.0,96,0.00,,,0.00,Wunderground v.1.15,2013-02-02 14:00:00,
2013-02-02 06:05:00,38.7,37.7,30.28,ESE,113,7.0,8.0,96,0.00,,,0.00,Wunderground v.1.15,2013-02-02 14:05:00,
2013-02-02 06:15:00,38.7,37.9,30.27,ESE,119,7.0,10.0,97,0.00,,,0.00,Wunderground v.1.15,2013-02-02 14:15:00,
2013-02-02 06:20:00,38.6,37.6,30.27,ESE,112,7.0,7.0,96,0.00,,,0.00,Wunderground v.1.15,2013-02-02 14:20:00,
2013-02-02 06:25:00,38.5,37.7,30.27,ESE,116,5.0,7.0,97,0.00,,,0.00,Wunderground v.1.15,2013-02-02 14:25:00,
2013-02-02 06:30:00,38.5,37.5,30.27,ESE,112,4.0,4.0,96,0.00,,,0.00,Wunderground v.1.15,2013-02-02 14:30:00,
2013-02-02 06:35:00,38.5,37.7,30.27,SE,125,5.0,7.0,97,0.00,,,0.00,Wunderground v.1.15,2013-02-02 14:35:00,
2013-02-02 06:40:00,38.6,37.8,30.27,ESE,119,7.0,10.0,97,0.00,,,0.00,Wunderground v.1.15,2013-02-02 14:40:00,
2013-02-02 06:50:00,38.5,37.5,30.27,ESE,123,6.0,6.0,96,0.00,,,0.00,Wunderground v.1.15,2013-02-02 14:50:00,
2013-02-02 06:55:00,38.5,37.7,30.27,SE,136,8.0,8.0,97,0.00,,,0.00,Wunderground v.1.15,2013-02-02 14:55:00,
2013-02-02 07:00:00,38.4,37.6,30.27,ESE,103,9.0,9.0,97,0.00,,,0.00,Wunderground v.1.15,2013-02-02 15:00:00,
2013-02-02 07:05:00,38.4,37.6,30.27,ESE,123,9.0,9.0,97,0.00,,,0.00,Wunderground v.1.15,2013-02-02 15:05:00,
2013-02-02 07:10:00,38.3,37.5,30.27,ESE,123,9.0,11.0,97,0.00,,,0.01,Wunderground v.1.15,2013-02-02 15:10:00,
2013-02-02 07:15:00,38.3,37.5,30.27,ESE,115,9.0,13.0,97,0.00,,,0.01,Wunderground v.1.15,2013-02-02 15:15:00,
2013-02-02 07:20:00,38.3,37.5,30.27,SE,136,10.0,10.0,97,0.00,,,0.01,Wunderground v.1.15,2013-02-02 15:20:00,
2013-02-02 07:25:00,38.3,37.5,30.28,ESE,123,10.0,11.0,97,0.00,,,0.01,Wunderground v.1.15,2013-02-02 15:25:00,
2013-02-02 07:30:00,38.3,37.5,30.28,ESE,113,10.0,10.0,97,0.00,,,0.01,Wunderground v.1.15,2013-02-02 15:30:00,
2013-02-02 07:35:00,38.2,37.4,30.28,SE,126,9.0,10.0,97,0.00,,,0.01,Wunderground v.1.15,2013-02-02 15:35:00,
2013-02-02 07:40:00,38.2,37.4,30.28,SE,133,8.0,8.0,97,0.00,,,0.01,Wunderground v.1.15,2013-02-02 15:40:00,
2013-02-02 07:45:00,38.2,37.4,30.28,SE,130,8.0,8.0,97,0.00,,,0.01,Wunderground v.1.15,2013-02-02 15:45:00,
2013-02-02 07:50:00,38.1,37.3,30.28,SE,136,7.0,7.0,97,0.00,,,0.01,Wunderground v.1.15,2013-02-02 15:50:00,
2013-02-02 07:55:00,38.0,37.2,30.28,ESE,119,6.0,7.0,97,0.00,,,0.01,Wunderground v.1.15,2013-02-02 15:55:00,
2013-02-02 08:00:00,38.0,37.2,30.28,ESE,123,5.0,8.0,97,0.00,,,0.01,Wunderground v.1.15,2013-02-02 16:00:00,
2013-02-02 08:05:00,38.0,37.2,30.29,ESE,123,6.0,8.0,97,0.00,,,0.01,Wunderground v.1.15,2013-02-02 16:05:00,
2013-02-02 08:10:00,38.0,37.2,30.29,ESE,112,5.0,9.0,97,0.00,,,0.01,Wunderground v.1.15,2013-02-02 16:10:00,
2013-02-02 08:15:00,38.1,37.3,30.29,ESE,123,5.0,11.0,97,0.00,,,0.01,Wunderground v.1.15,2013-02-02 16:15:00,
2013-02-02 08:20:00,38.1,37.3,30.29,East,98,5.0,7.0,97,0.00,,,0.01,Wunderground v.1.15,2013-02-02 16:20:00,
2013-02-02 08:25:00,38.2,37.4,30.29,East,92,5.0,7.0,97,0.00,,,0.01,Wunderground v.1.15,2013-02-02 16:25:00,
2013-02-02 08:30:00,38.2,37.4,30.29,SE,130,6.0,7.0,97,0.00,,,0.01,Wunderground v.1.15,2013-02-02 16:30:00,
2013-02-02 08:35:00,38.2,37.4,30.29,SE,128,5.0,7.0,97,0.00,,,0.01,Wunderground v.1.15,2013-02-02 16:35:00,
2013-02-02 08:40:00,38.3,37.5,30.29,SE,132,5.0,9.0,97,0.00,,,0.01,Wunderground v.1.15,2013-02-02 16:40:00,
2013-02-02 08:45:00,38.3,37.5,30.29,SE,124,6.0,9.0,97,0.00,,,0.01,Wunderground v.1.15,2013-02-02 16:45:00,
2013-02-02 08:50:00,38.4,37.6,30.29,SE,140,6.0,6.0,97,0.00,,,0.01,Wunderground v.1.15,2013-02-02 16:50:00,
2013-02-02 08:55:00,38.4,37.6,30.30,East,94,7.0,7.0,97,0.00,,,0.01,Wunderground v.1.15,2013-02-02 16:55:00,
2013-02-02 09:05:00,38.5,37.7,30.29,SE,138,7.0,10.0,97,0.00,,,0.01,Wunderground v.1.15,2013-02-02 17:05:00,
2013-02-02 09:10:00,38.6,37.6,30.29,ESE,121,7.0,8.0,96,0.00,,,0.01,Wunderground v.1.15,2013-02-02 17:10:00,
2013-02-02 09:15:00,38.6,37.6,30.29,SE,131,8.0,8.0,96,0.00,,,0.01,Wunderground v.1.15,2013-02-02 17:15:00,
2013-02-02 09:20:00,38.9,37.9,30.29,SE,140,9.0,9.0,96,0.00,,,0.01,Wunderground v.1.15,2013-02-02 17:20:00,
2013-02-02 09:25:00,39.1,38.1,30.29,ESE,118,8.0,12.0,96,0.00,,,0.01,Wunderground v.1.15,2013-02-02 17:25:00,
2013-02-02 09:30:00,39.1,38.1,30.29,SE,132,8.0,9.0,96,0.00,,,0.01,Wunderground v.1.15,2013-02-02 17:30:00,
2013-02-02 09:35:00,39.2,38.2,30.29,SE,134,8.0,9.0,96,0.00,,,0.01,Wunderground v.1.15,2013-02-02 17:35:00,
2013-02-02 09:40:00,39.3,38.0,30.29,SE,144,7.0,10.0,95,0.00,,,0.01,Wunderground v.1.15,2013-02-02 17:40:00,
2013-02-02 09:45:00,39.3,38.0,30.29,SE,126,8.0,10.0,95,0.00,,,0.01,Wunderground v.1.15,2013-02-02 17:45:00,
2013-02-02 09:50:00,39.4,38.1,30.29,East,99,8.0,8.0,95,0.00,,,0.01,Wunderground v.1.15,2013-02-02 17:50:00,
2013-02-02 09:55:00,39.4,38.1,30.29,SE,131,6.0,8.0,95,0.00,,,0.01,Wunderground v.1.15,2013-02-02 17:55:00,
2013-02-02 10:00:00,39.5,38.2,30.29,ESE,113,6.0,6.0,95,0.00,,,0.01,Wunderground v.1.15,2013-02-02 18:00:00,
2013-02-02 10:05:00,39.6,38.3,30.30,ESE,106,6.0,6.0,95,0.00,,,0.01,Wunderground v.1.15,2013-02-02 18:05:00,
2013-02-02 10:10:00,39.8,38.5,30.30,ENE,77,5.0,5.0,95,0.00,,,0.01,Wunderground v.1.15,2013-02-02 18:10:00,
2013-02-02 10:15:00,39.8,38.2,30.30,SE,133,6.0,7.0,94,0.00,,,0.01,Wunderground v.1.15,2013-02-02 18:15:00,
2013-02-02 10:20:00,39.9,38.6,30.30,SE,130,7.0,11.0,95,0.00,,,0.01,Wunderground v.1.15,2013-02-02 18:20:00,
2013-02-02 10:25:00,39.9,38.3,30.30,SE,134,8.0,11.0,94,0.00,,,0.01,Wunderground v.1.15,2013-02-02 18:25:00,
2013-02-02 10:30:00,40.2,38.6,30.30,ESE,117,7.0,7.0,94,0.00,,,0.01,Wunderground v.1.15,2013-02-02 18:30:00,
2013-02-02 10:35:00,40.2,38.6,30.30,ESE,121,8.0,9.0,94,0.00,,,0.01,Wunderground v.1.15,2013-02-02 18:35:00,
2013-02-02 10:40:00,40.1,38.5,30.30,SE,134,9.0,10.0,94,0.00,,,0.01,Wunderground v.1.15,2013-02-02 18:40:00,
2013-02-02 10:45:00,40.2,38.6,30.30,SE,139,10.0,11.0,94,0.00,,,0.01,Wunderground v.1.15,2013-02-02 18:45:00,
2013-02-02 10:50:00,40.4,38.8,30.30,SSE,156,10.0,11.0,94,0.00,,,0.01,Wunderground v.1.15,2013-02-02 18:50:00,
2013-02-02 10:55:00,40.6,38.7,30.30,SE,132,9.0,11.0,93,0.00,,,0.01,Wunderground v.1.15,2013-02-02 18:55:00,
2013-02-02 11:00:00,40.8,38.9,30.29,SE,128,10.0,12.0,93,0.00,,,0.01,Wunderground v.1.15,2013-02-02 19:00:00,
2013-02-02 11:05:00,41.0,39.1,30.29,SE,126,10.0,12.0,93,0.00,,,0.01,Wunderground v.1.15,2013-02-02 19:05:00,
2013-02-02 11:10:00,40.9,38.8,30.29,SE,137,10.0,11.0,92,0.00,,,0.01,Wunderground v.1.15,2013-02-02 19:10:00,
2013-02-02 11:15:00,40.9,38.8,30.29,SE,132,11.0,11.0,92,0.00,,,0.01,Wunderground v.1.15,2013-02-02 19:15:00,
2013-02-02 11:20:00,41.2,39.1,30.29,ESE,116,11.0,11.0,92,0.00,,,0.01,Wunderground v.1.15,2013-02-02 19:20:00,
2013-02-02 11:30:00,41.8,39.6,30.28,SE,130,9.0,10.0,92,0.00,,,0.01,Wunderground v.1.15,2013-02-02 19:30:00,
2013-02-02 11:35:00,41.8,39.6,30.28,SE,131,9.0,10.0,92,0.00,,,0.01,Wunderground v.1.15,2013-02-02 19:35:00,
2013-02-02 11:40:00,41.8,39.6,30.28,SE,136,10.0,11.0,92,0.00,,,0.01,Wunderground v.1.15,2013-02-02 19:40:00,
2013-02-02 11:45:00,41.8,39.6,30.28,SE,129,11.0,11.0,92,0.00,,,0.01,Wunderground v.1.15,2013-02-02 19:45:00,
2013-02-02 11:50:00,41.9,39.7,30.28,ESE,110,10.0,10.0,92,0.00,,,0.01,Wunderground v.1.15,2013-02-02 19:50:00,
2013-02-02 11:55:00,41.8,39.6,30.28,SE,138,10.0,12.0,92,0.00,,,0.01,Wunderground v.1.15,2013-02-02 19:55:00,
2013-02-02 12:00:00,41.9,40.0,30.28,SSE,147,11.0,11.0,93,0.00,,,0.01,Wunderground v.1.15,2013-02-02 20:00:00,
2013-02-02 12:05:00,42.4,40.2,30.28,SSE,156,11.0,11.0,92,0.00,,,0.01,Wunderground v.1.15,2013-02-02 20:05:00,
2013-02-02 12:10:00,42.9,40.7,30.27,SSE,159,9.0,11.0,92,0.00,,,0.01,Wunderground v.1.15,2013-02-02 20:10:00,
2013-02-02 12:15:00,43.1,40.7,30.27,SE,140,9.0,11.0,91,0.00,,,0.01,Wunderground v.1.15,2013-02-02 20:15:00,
2013-02-02 12:20:00,43.2,40.8,30.27,SSE,149,9.0,11.0,91,0.00,,,0.01,Wunderground v.1.15,2013-02-02 20:20:00,
2013-02-02 12:25:00,43.5,41.0,30.27,SSE,147,9.0,11.0,91,0.00,,,0.01,Wunderground v.1.15,2013-02-02 20:25:00,
2013-02-02 12:30:00,43.5,41.0,30.27,SSE,159,9.0,11.0,91,0.00,,,0.01,Wunderground v.1.15,2013-02-02 20:30:00,
2013-02-02 12:35:00,43.5,40.8,30.27,SE,143,9.0,11.0,90,0.00,,,0.01,Wunderground v.1.15,2013-02-02 20:35:00,
2013-02-02 12:40:00,43.9,41.2,30.27,SE,130,9.0,9.0,90,0.00,,,0.01,Wunderground v.1.15,2013-02-02 20:40:00,
2013-02-02 12:45:00,43.9,41.2,30.26,SE,136,8.0,9.0,90,0.00,,,0.01,Wunderground v.1.15,2013-02-02 20:45:00,
2013-02-02 12:55:00,44.1,41.4,30.27,SE,138,6.0,7.0,90,0.00,,,0.01,Wunderground v.1.15,2013-02-02 20:55:00,
2013-02-02 13:00:00,44.4,41.7,30.27,SE,136,6.0,6.0,90,0.00,,,0.01,Wunderground v.1.15,2013-02-02 21:00:00,
2013-02-02 13:05:00,45.2,42.2,30.26,SE,140,6.0,6.0,89,0.00,,,0.01,Wunderground v.1.15,2013-02-02 21:05:00,
2013-02-02 13:10:00,45.6,42.3,30.26,SE,129,6.0,6.0,88,0.00,,,0.01,Wunderground v.1.15,2013-02-02 21:10:00,
2013-02-02 13:14:00,45.9,42.2,30.26,SE,141,5.0,6.0,87,0.00,,,0.01,Wunderground v.1.15,2013-02-02 21:14:00,
2013-02-02 13:20:00,45.9,41.9,30.26,SE,140,5.0,9.0,86,0.00,,,0.01,Wunderground v.1.15,2013-02-02 21:20:00,
2013-02-02 13:25:00,45.8,42.2,30.26,SE,134,6.0,9.0,87,0.00,,,0.01,Wunderground v.1.15,2013-02-02 21:25:00,
2013-02-02 13:30:00,46.0,42.3,30.26,SE,131,6.0,6.0,87,0.00,,,0.01,Wunderground v.1.15,2013-02-02 21:30:00,
2013-02-02 13:35:00,46.1,42.1,30.26,SE,130,6.0,6.0,86,0.00,,,0.01,Wunderground v.1.15,2013-02-02 21:35:00,
2013-02-02 13:40:00,46.7,43.0,30.26,SE,138,5.0,5.0,87,0.00,,,0.01,Wunderground v.1.15,2013-02-02 21:40:00,
2013-02-02 13:45:00,47.0,43.0,30.25,SE,140,5.0,8.0,86,0.00,,,0.01,Wunderground v.1.15,2013-02-02 21:45:00,
2013-02-02 13:50:00,47.1,43.1,30.25,SE,132,6.0,6.0,86,0.00,,,0.01,Wunderground v.1.15,2013-02-02 21:50:00,
2013-02-02 13:55:00,47.3,43.0,30.25,SE,140,6.0,7.0,85,0.00,,,0.01,Wunderground v.1.15,2013-02-02 21:55:00,
2013-02-02 14:00:00,47.1,42.8,30.25,SE,137,6.0,6.0,85,0.00,,,0.01,Wunderground v.1.15,2013-02-02 22:00:00,
2013-02-02 14:05:00,47.0,42.7,30.25,SE,142,6.0,8.0,85,0.00,,,0.01,Wunderground v.1.15,2013-02-02 22:05:00,
2013-02-02 14:10:00,46.7,42.4,30.25,SE,137,6.0,6.0,85,0.00,,,0.01,Wunderground v.1.15,2013-02-02 22:10:00,
2013-02-02 14:15:00,46.6,42.6,30.25,SE,132,6.0,6.0,86,0.00,,,0.01,Wunderground v.1.15,2013-02-02 22:15:00,
2013-02-02 14:20:00,47.6,43.6,30.25,SE,134,6.0,6.0,86,0.00,,,0.01,Wunderground v.1.15,2013-02-02 22:20:00,
2013-02-02 14:25:00,48.1,43.8,30.25,SE,141,5.0,6.0,85,0.00,,,0.01,Wunderground v.1.15,2013-02-02 22:25:00,
2013-02-02 14:30:00,48.4,43.8,30.25,SE,136,5.0,6.0,84,0.00,,,0.01,Wunderground v.1.15,2013-02-02 22:30:00,
2013-02-02 14:35:00,48.8,44.2,30.25,SE,137,5.0,6.0,84,0.00,,,0.01,Wunderground v.1.15,2013-02-02 22:35:00,
2013-02-02 14:40:00,48.6,43.7,30.25,SE,139,5.0,5.0,83,0.00,,,0.01,Wunderground v.1.15,2013-02-02 22:40:00,
2013-02-02 14:45:00,48.5,43.9,30.25,SE,126,5.0,5.0,84,0.00,,,0.01,Wunderground v.1.15,2013-02-02 22:45:00,
2013-02-02 14:50:00,48.8,44.2,30.25,SE,128,4.0,4.0,84,0.00,,,0.01,Wunderground v.1.15,2013-02-02 22:50:00,
2013-02-02 14:55:00,49.2,44.3,30.25,SE,130,4.0,5.0,83,0.00,,,0.01,Wunderground v.1.15,2013-02-02 22:55:00,
2013-02-02 15:00:00,49.3,44.4,30.25,SE,130,5.0,5.0,83,0.00,,,0.01,Wunderground v.1.15,2013-02-02 23:00:00,
2013-02-02 15:05:00,49.2,43.9,30.25,SE,134,5.0,5.0,82,0.00,,,0.01,Wunderground v.1.15,2013-02-02 23:05:00,
2013-02-02 15:10:00,48.9,43.6,30.25,SE,135,4.0,4.0,82,0.00,,,0.01,Wunderground v.1.15,2013-02-02 23:10:00,
2013-02-02 15:15:00,48.3,43.4,30.25,SE,136,4.0,5.0,83,0.00,,,0.01,Wunderground v.1.15,2013-02-02 23:15:00,
2013-02-02 15:25:00,48.6,43.7,30.25,SE,125,4.0,4.0,83,0.00,,,0.01,Wunderground v.1.15,2013-02-02 23:25:00,
2013-02-02 15:30:00,48.3,43.4,30.25,SE,130,4.0,4.0,83,0.00,,,0.01,Wunderground v.1.15,2013-02-02 23:30:00,
2013-02-02 15:35:00,48.3,43.4,30.25,SE,130,4.0,4.0,83,0.00,,,0.01,Wunderground v.1.15,2013-02-02 23:35:00,
2013-02-02 15:40:00,48.3,43.7,30.25,SE,130,4.0,4.0,84,0.00,,,0.01,Wunderground v.1.15,2013-02-02 23:40:00,
2013-02-02 15:45:00,48.4,43.8,30.25,SE,130,3.0,4.0,84,0.00,,,0.01,Wunderground v.1.15,2013-02-02 23:45:00,
2013-02-02 15:50:00,48.5,43.6,30.25,SE,130,3.0,4.0,83,0.00,,,0.01,Wunderground v.1.15,2013-02-02 23:50:00,
2013-02-02 15:55:00,49.0,44.4,30.25,SE,130,3.0,4.0,84,0.00,,,0.01,Wunderground v.1.15,2013-02-02 23:55:00,
2013-02-02 16:00:00,49.6,44.6,30.25,SE,134,3.0,3.0,83,0.00,,,0.01,Wunderground v.1.15,2013-02-03 00:00:00,
2013-02-02 16:05:00,50.2,44.9,30.25,SE,135,3.0,3.0,82,0.00,,,0.01,Wunderground v.1.15,2013-02-03 00:05:00,
2013-02-02 16:10:00,50.5,44.9,30.25,SE,136,3.0,3.0,81,0.00,,,0.01,Wunderground v.1.15,2013-02-03 00:10:00,
2013-02-02 16:15:00,50.8,45.2,30.25,SE,136,3.0,3.0,81,0.00,,,0.01,Wunderground v.1.15,2013-02-03 00:15:00,
2013-02-02 16:20:00,51.0,45.0,30.24,SE,136,2.0,2.0,80,0.00,,,0.01,Wunderground v.1.15,2013-02-03 00:20:00,
2013-02-02 16:25:00,51.2,45.2,30.24,SE,136,2.0,2.0,80,0.00,,,0.01,Wunderground v.1.15,2013-02-03 00:25:00,
2013-02-02 16:35:00,50.0,44.4,30.25,SE,139,1.0,1.0,81,0.00,,,0.01,Wunderground v.1.15,2013-02-03 00:35:00,
2013-02-02 16:40:00,49.2,43.6,30.24,SE,139,1.0,1.0,81,0.00,,,0.01,Wunderground v.1.15,2013-02-03 00:40:00,
2013-02-02 16:45:00,48.0,43.1,30.24,SE,139,0.0,1.0,83,0.00,,,0.01,Wunderground v.1.15,2013-02-03 00:45:00,
2013-02-02 16:50:00,47.7,43.4,30.24,SE,139,0.0,0.0,85,0.00,,,0.01,Wunderground v.1.15,2013-02-03 00:50:00,
2013-02-02 16:55:00,47.6,43.6,30.24,SE,139,0.0,3.0,86,0.00,,,0.01,Wunderground v.1.15,2013-02-03 00:55:00,
2013-02-02 17:00:00,47.2,43.5,30.24,SE,139,1.0,1.0,87,0.00,,,0.01,Wunderground v.1.15,2013-02-03 01:00:00,
2013-02-02 17:05:00,47.3,43.9,30.24,SE,142,2.0,3.0,88,0.00,,,0.01,Wunderground v.1.15,2013-02-03 01:05:00,
2013-02-02 17:10:00,47.6,43.9,30.24,SE,144,2.0,2.0,87,0.00,,,0.01,Wunderground v.1.15,2013-02-03 01:10:00,
2013-02-02 17:15:00,47.5,43.5,30.24,SE,144,3.0,3.0,86,0.00,,,0.01,Wunderground v.1.15,2013-02-03 01:15:00,
2013-02-02 17:20:00,46.9,43.2,30.24,SE,144,2.0,2.0,87,0.00,,,0.01,Wunderground v.1.15,2013-02-03 01:20:00,
2013-02-02 17:25:00,46.3,42.9,30.24,SE,144,2.0,2.0,88,0.00,,,0.01,Wunderground v.1.15,2013-02-03 01:25:00,
2013-02-02 17:30:00,45.6,42.5,30.24,SE,144,2.0,3.0,89,0.00,,,0.01,Wunderground v.1.15,2013-02-03 01:30:00,
2013-02-02 17:35:00,45.1,42.3,30.24,SE,145,2.0,3.0,90,0.00,,,0.01,Wunderground v.1.15,2013-02-03 01:35:00,
2013-02-02 17:40:00,44.9,42.1,30.24,SE,145,2.0,2.0,90,0.00,,,0.01,Wunderground v.1.15,2013-02-03 01:40:00,
2013-02-02 17:45:00,44.7,42.2,30.24,SE,145,0.0,2.0,91,0.00,,,0.01,Wunderground v.1.15,2013-02-03 01:45:00,
2013-02-02 17:50:00,44.7,42.5,30.24,SE,145,0.0,1.0,92,0.00,,,0.01,Wunderground v.1.15,2013-02-03 01:50:00,
2013-02-02 17:55:00,44.4,41.9,30.24,SE,145,1.0,2.0,91,0.00,,,0.01,Wunderground v.1.15,2013-02-03 01:55:00,
2013-02-02 18:00:00,44.4,42.2,30.24,SE,145,1.0,2.0,92,0.00,,,0.01,Wunderground v.1.15,2013-02-03 02:00:00,
2013-02-02 18:05:00,44.2,41.7,30.25,SE,145,1.0,2.0,91,0.00,,,0.01,Wunderground v.1.15,2013-02-03 02:05:00,
2013-02-02 18:10:00,43.8,41.3,30.24,SE,145,0.0,0.0,91,0.00,,,0.01,Wunderground v.1.15,2013-02-03 02:10:00,
2013-02-02 18:15:00,43.1,40.7,30.24,SE,145,0.0,0.0,91,0.00,,,0.01,Wunderground v.1.15,2013-02-03 02:15:00,
2013-02-02 18:20:00,42.8,40.6,30.24,SE,145,0.0,0.0,92,0.00,,,0.01,Wunderground v.1.15,2013-02-03 02:20:00,
2013-02-02 18:25:00,42.7,40.8,30.24,SE,145,0.0,0.0,93,0.00,,,0.01,Wunderground v.1.15,2013-02-03 02:25:00,
2013-02-02 18:30:00,43.0,41.4,30.24,SE,145,0.0,0.0,94,0.00,,,0.01,Wunderground v.1.15,2013-02-03 02:30:00,
2013-02-02 18:35:00,43.2,41.3,30.24,SE,145,1.0,1.0,93,0.00,,,0.01,Wunderground v.1.15,2013-02-03 02:35:00,
2013-02-02 18:40:00,42.9,41.0,30.24,SE,145,1.0,2.0,93,0.00,,,0.01,Wunderground v.1.15,2013-02-03 02:40:00,
2013-02-02 18:45:00,42.6,40.7,30.24,SE,145,1.0,2.0,93,0.00,,,0.01,Wunderground v.1.15,2013-02-03 02:45:00,
2013-02-02 18:50:00,42.2,40.3,30.24,ESE,107,1.0,2.0,93,0.00,,,0.01,Wunderground v.1.15,2013-02-03 02:50:00,
2013-02-02 18:55:00,42.2,40.6,30.24,East,101,1.0,2.0,94,0.00,,,0.01,Wunderground v.1.15,2013-02-03 02:55:00,
2013-02-02 19:00:00,42.5,40.9,30.25,East,101,1.0,1.0,94,0.00,,,0.01,Wunderground v.1.15,2013-02-03 03:00:00,
2013-02-02 19:05:00,42.5,40.9,30.25,East,101,0.0,1.0,94,0.00,,,0.01,Wunderground v.1.15,2013-02-03 03:05:00,
2013-02-02 19:10:00,42.3,40.4,30.25,East,101,0.0,0.0,93,0.00,,,0.01,Wunderground v.1.15,2013-02-03 03:10:00,
2013-02-02 19:15:00,42.3,41.0,30.24,East,101,0.0,1.0,95,0.00,,,0.01,Wunderground v.1.15,2013-02-03 03:15:00,
2013-02-02 19:20:00,42.5,40.9,30.25,East,101,0.0,0.0,94,0.00,,,0.01,Wunderground v.1.15,2013-02-03 03:20:00,
2013-02-02 19:25:00,42.5,40.9,30.25,East,101,0.0,0.0,94,0.00,,,0.01,Wunderground v.1.15,2013-02-03 03:25:00,
2013-02-02 19:35:00,42.0,40.4,30.25,East,101,0.0,0.0,94,0.00,,,0.01,Wunderground v.1.15,2013-02-03 03:35:00,
2013-02-02 19:40:00,41.6,39.7,30.25,East,101,0.0,0.0,93,0.00,,,0.01,Wunderground v.1.15,2013-02-03 03:40:00,
2013-02-02 19:45:00,41.2,39.6,30.25,East,101,1.0,2.0,94,0.00,,,0.01,Wunderground v.1.15,2013-02-03 03:45:00,
2013-02-02 19:50:00,40.9,39.3,30.26,East,101,2.0,3.0,94,0.00,,,0.01,Wunderground v.1.15,2013-02-03 03:50:00,
2013-02-02 19:55:00,40.4,38.8,30.26,NE,51,2.0,4.0,94,0.00,,,0.01,Wunderground v.1.15,2013-02-03 03:55:00,
2013-02-02 20:00:00,39.5,37.9,30.26,NE,41,3.0,3.0,94,0.00,,,0.01,Wunderground v.1.15,2013-02-03 04:00:00,
2013-02-02 20:05:00,39.4,38.1,30.26,NE,41,2.0,3.0,95,0.00,,,0.01,Wunderground v.1.15,2013-02-03 04:05:00,
2013-02-02 20:10:00,39.2,37.9,30.26,NE,41,0.0,2.0,95,0.00,,,0.01,Wunderground v.1.15,2013-02-03 04:10:00,
2013-02-02 20:15:00,39.5,38.5,30.27,WNW,293,2.0,2.0,96,0.00,,,0.01,Wunderground v.1.15,2013-02-03 04:15:00,
2013-02-02 20:20:00,39.8,38.8,30.27,WNW,293,2.0,2.0,96,0.00,,,0.01,Wunderground v.1.15,2013-02-03 04:20:00,
2013-02-02 20:25:00,39.9,38.9,30.27,WNW,294,1.0,2.0,96,0.00,,,0.01,Wunderground v.1.15,2013-02-03 04:25:00,
2013-02-02 20:30:00,39.8,38.8,30.27,NNE,15,1.0,1.0,96,0.00,,,0.01,Wunderground v.1.15,2013-02-03 04:30:00,
2013-02-02 20:35:00,39.5,38.5,30.26,NE,36,1.0,2.0,96,0.00,,,0.01,Wunderground v.1.15,2013-02-03 04:35:00,
2013-02-02 20:40:00,39.5,38.5,30.27,NNE,15,2.0,3.0,96,0.00,,,0.01,Wunderground v.1.15,2013-02-03 04:40:00,
2013-02-02 20:45:00,39.1,38.1,30.27,NNE,17,2.0,3.0,96,0.00,,,0.01,Wunderground v.1.15,2013-02-03 04:45:00,
2013-02-02 20:50:00,38.8,37.8,30.27,North,360,1.0,2.0,96,0.00,,,0.01,Wunderground v.1.15,2013-02-03 04:50:00,
2013-02-02 20:55:00,38.7,37.7,30.27,North,355,1.0,2.0,96,0.00,,,0.01,Wunderground v.1.15,2013-02-03 04:55:00,
2013-02-02 21:00:00,38.5,37.5,30.28,NNW,347,1.0,1.0,96,0.00,,,0.01,Wunderground v.1.15,2013-02-03 05:00:00,
2013-02-02 21:05:00,38.4,37.4,30.28,NNW,339,0.0,1.0,96,0.00,,,0.01,Wunderground v.1.15,2013-02-03 05:05:00,
2013-02-02 21:10:00,38.2,37.2,30.28,NNW,327,0.0,0.0,96,0.00,,,0.01,Wunderground v.1.15,2013-02-03 05:10:00,
2013-02-02 21:15:00,38.0,37.0,30.28,North,355,1.0,1.0,96,0.00,,,0.01,Wunderground v.1.15,2013-02-03 05:15:00,
2013-02-02 21:20:00,38.0,37.2,30.28,NW,313,1.0,3.0,97,0.00,,,0.01,Wunderground v.1.15,2013-02-03 05:20:00,
2013-02-02 21:25:00,38.5,37.7,30.28,NW,315,1.0,3.0,97,0.00,,,0.01,Wunderground v.1.15,2013-02-03 05:25:00,
2013-02-02 21:30:00,38.5,37.7,30.29,NW,313,2.0,2.0,97,0.00,,,0.01,Wunderground v.1.15,2013-02-03 05:30:00,
2013-02-02 21:35:00,38.9,38.4,30.29,NNW,342,1.0,2.0,98,0.00,,,0.01,Wunderground v.1.15,2013-02-03 05:35:00,
2013-02-02 21:40:00,38.7,37.9,30.29,NNE,24,2.0,2.0,97,0.00,,,0.01,Wunderground v.1.15,2013-02-03 05:40:00,
2013-02-02 21:45:00,38.5,37.7,30.29,NNE,24,1.0,2.0,97,0.00,,,0.01,Wunderground v.1.15,2013-02-03 05:45:00,
2013-02-02 21:55:00,38.5,37.7,30.29,NNE,24,0.0,1.0,97,0.00,,,0.01,Wunderground v.1.15,2013-02-03 05:55:00,
2013-02-02 22:00:00,38.9,38.4,30.29,WNW,294,1.0,1.0,98,0.00,,,0.01,Wunderground v.1.15,2013-02-03 06:00:00,
2013-02-02 22:05:00,39.5,39.0,30.30,West,275,3.0,4.0,98,0.00,,,0.01,Wunderground v.1.15,2013-02-03 06:05:00,
2013-02-02 22:10:00,39.8,39.3,30.31,West,270,4.0,4.0,98,0.00,,,0.01,Wunderground v.1.15,2013-02-03 06:10:00,
2013-02-02 22:15:00,39.9,39.4,30.31,West,265,4.0,4.0,98,0.00,,,0.01,Wunderground v.1.15,2013-02-03 06:15:00,
2013-02-02 22:20:00,39.9,39.1,30.31,West,265,3.0,3.0,97,0.00,,,0.01,Wunderground v.1.15,2013-02-03 06:20:00,
2013-02-02 22:25:00,39.9,39.1,30.31,West,271,3.0,3.0,97,0.00,,,0.01,Wunderground v.1.15,2013-02-03 06:25:00,
2013-02-02 22:30:00,40.0,39.2,30.31,West,271,2.0,2.0,97,0.00,,,0.01,Wunderground v.1.15,2013-02-03 06:30:00,
2013-02-02 22:40:00,40.1,39.3,30.31,West,263,0.0,2.0,97,0.00,,,0.01,Wunderground v.1.15,2013-02-03 06:40:00,
2013-02-02 22:45:00,39.8,39.0,30.31,WSW,237,1.0,2.0,97,0.00,,,0.01,Wunderground v.1.15,2013-02-03 06:45:00,
2013-02-02 22:50:00,39.6,38.8,30.30,WSW,237,1.0,1.0,97,0.00,,,0.01,Wunderground v.1.15,2013-02-03 06:50:00,
2013-02-02 22:55:00,39.7,39.2,30.30,South,183,1.0,1.0,98,0.00,,,0.01,Wunderground v.1.15,2013-02-03 06:55:00,
2013-02-02 23:00:00,39.8,39.3,30.30,South,183,1.0,1.0,98,0.00,,,0.01,Wunderground v.1.15,2013-02-03 07:00:00,
2013-02-02 23:05:00,39.7,38.9,30.30,South,183,2.0,2.0,97,0.00,,,0.01,Wunderground v.1.15,2013-02-03 07:05:00,
2013-02-02 23:10:00,39.5,38.7,30.29,SE,129,2.0,3.0,97,0.00,,,0.01,Wunderground v.1.15,2013-02-03 07:10:00,
2013-02-02 23:15:00,39.5,38.7,30.29,SE,128,3.0,3.0,97,0.00,,,0.01,Wunderground v.1.15,2013-02-03 07:15:00,
2013-02-02 23:20:00,39.6,39.1,30.29,SE,127,3.0,3.0,98,0.00,,,0.01,Wunderground v.1.15,2013-02-03 07:20:00,
2013-02-02 23:25:00,39.8,39.0,30.29,SE,128,2.0,3.0,97,0.00,,,0.01,Wunderground v.1.15,2013-02-03 07:25:00,
2013-02-02 23:30:00,40.0,39.2,30.29,ESE,119,1.0,2.0,97,0.00,,,0.01,Wunderground v.1.15,2013-02-03 07:30:00,
2013-02-02 23:35:00,40.0,39.2,30.29,East,98,1.0,2.0,97,0.00,,,0.01,Wunderground v.1.15,2013-02-03 07:35:00,
2013-02-02 23:40:00,40.0,39.2,30.29,East,92,2.0,2.0,97,0.00,,,0.01,Wunderground v.1.15,2013-02-03 07:40:00,
2013-02-02 23:45:00,40.4,39.9,30.30,NNW,336,2.0,3.0,98,0.00,,,0.01,Wunderground v.1.15,2013-02-03 07:45:00,
2013-02-02 23:50:00,39.6,38.6,30.29,NW,321,2.0,3.0,96,0.00,,,0.01,Wunderground v.1.15,2013-02-03 07:50:00,
2013-02-02 23:55:00,39.5,38.7,30.30,SE,144,3.0,3.0,97,0.00,,,0.01,Wunderground v.1.15,2013-02-03 07:55:00,